Weather History for Houston / Southwest Airport, TX

Change the Weather History Date:

Monday, October 1, 2012

  Actual Average (KHOU) Record (KHOU)
Temperature  
Mean Temperature 69 °F 76 °F  
Max Temperature 83 °F 86 °F 99 °F (1900)
Min Temperature 55 °F 65 °F 44 °F (1984)
Degree Days  
Heating Degree Days 0 0  
Month to date heating degree days 0  
Since 1 July heating degree days 1  
Cooling Degree Days 4 11  
Month to date cooling degree days 11  
Year to date cooling degree days 2836  
Growing Degree Days 19 (Base 50)    
Moisture  
Dew Point 54 °F    
Average Humidity 61    
Maximum Humidity 95    
Minimum Humidity 30    
Precipitation  
Precipitation 0.00 in 0.15 in 4.62 in (1913)
Month to date precipitation 0.15  
Year to date precipitation 36.14  
Sea Level Pressure  
Sea Level Pressure 29.81 in    
Wind  
Wind Speed 7 mph (WNW)    
Max Wind Speed 20 mph    
Max Gust Speed 25 mph    
Visibility 10 miles    
Events      
T = Trace of Precipitation, MM = Missing Value Source: NWS Daily Summary

Daily Weather History Graph

Daily Weather History Graph

Search for Another Location

Airport:

Trip Planner

Search our weather history database for the weather conditions in past years. The results will help you decide how hot, cold, wet, or windy it might be!

Date:

Astronomy

Oct. 01, 2012 Rise Set
Actual Time 7:15 AM CDT 7:06 PM CDT
Civil Twilight 6:51 AM CDT 7:30 PM CDT
Nautical Twilight 6:24 AM CDT 7:58 PM CDT
Astronomical Twilight 5:56 AM CDT 8:25 PM CDT
Moon 7:56 PM CDT (10/1) 8:34 AM CDT (10/1)
Length of Visible Light 12h 38m
Length of Day
11h 51m
Full, 98% of the Moon is Illuminated
Oct 1
Full
Oct 8
Last Quarter
Oct 15
New
Oct 21
First Quarter
Oct 29
Full

Hourly Weather History & Observations

Time (CDT) Temp. Dew Point Humidity Pressure Visibility Wind Dir Wind Speed Gust Speed Precip Events Conditions
12:15 AM 64.4 °F 56.8 °F 76% 29.81 in 10.0 mi NW 8.1 mph - N/A   Overcast
12:35 AM 64.4 °F 56.7 °F 76% 29.81 in 10.0 mi NW 10.4 mph - N/A   Overcast
1:15 AM 64.4 °F 56.3 °F 75% 29.80 in 10.0 mi NNW 10.4 mph - N/A   Overcast
1:35 AM 64.0 °F 56.3 °F 76% 29.80 in 10.0 mi NW 9.2 mph 16.1 mph N/A   Overcast
1:55 AM 63.1 °F 55.9 °F 77% 29.79 in 10.0 mi NW 9.2 mph - N/A   Overcast
2:35 AM 61.7 °F 55.8 °F 81% 29.80 in 10.0 mi NW 6.9 mph - N/A   Clear
2:55 AM 61.3 °F 55.6 °F 81% 29.80 in 10.0 mi NW 6.9 mph - N/A   Clear
3:15 AM 61.0 °F 55.4 °F 82% 29.80 in 10.0 mi NW 5.8 mph - N/A   Clear
3:35 AM 60.6 °F 55.2 °F 82% 29.80 in 10.0 mi NW 4.6 mph - N/A   Clear
4:15 AM 59.0 °F 54.7 °F 86% 29.81 in 10.0 mi WNW 4.6 mph - N/A   Clear
4:35 AM 59.0 °F 55.0 °F 87% 29.80 in 10.0 mi NW 3.5 mph - N/A   Clear
4:55 AM 58.3 °F 54.5 °F 87% 29.80 in 10.0 mi WNW 4.6 mph - N/A   Clear
5:15 AM 57.6 °F 54.0 °F 88% 29.81 in 10.0 mi WNW 3.5 mph - N/A   Clear
5:35 AM 57.4 °F 55.0 °F 92% 29.81 in 10.0 mi West 3.5 mph - N/A   Clear
5:55 AM 56.7 °F 54.5 °F 92% 29.81 in 10.0 mi Calm Calm - N/A   Clear
6:15 AM 56.3 °F 54.0 °F 92% 29.82 in 10.0 mi West 3.5 mph - N/A   Clear
6:35 AM 55.8 °F 53.4 °F 92% 29.82 in 10.0 mi West 3.5 mph - N/A   Clear
7:15 AM 55.4 °F 53.6 °F 94% 29.83 in 10.0 mi West 3.5 mph - N/A   Clear
7:35 AM 55.6 °F 54.1 °F 95% 29.83 in 7.0 mi West 3.5 mph - N/A   Clear
8:15 AM 60.1 °F 58.5 °F 94% 29.83 in 10.0 mi Calm Calm - N/A   Clear
8:35 AM 62.6 °F 57.7 °F 84% 29.84 in 10.0 mi West 3.5 mph - N/A   Clear
8:55 AM 64.6 °F 57.2 °F 77% 29.85 in 10.0 mi WNW 4.6 mph - N/A   Clear
9:15 AM 67.1 °F 57.2 °F 70% 29.85 in 10.0 mi WNW 3.5 mph - N/A   Clear
9:35 AM 68.5 °F 56.1 °F 64% 29.86 in 10.0 mi NW 6.9 mph - N/A   Clear
9:55 AM 70.7 °F 55.4 °F 58% 29.86 in 10.0 mi WNW 8.1 mph - N/A   Clear
10:15 AM 72.5 °F 54.7 °F 53% 29.86 in 10.0 mi WNW 11.5 mph - N/A   Clear
10:35 AM 74.3 °F 55.4 °F 52% 29.86 in 10.0 mi NW 9.2 mph - N/A   Clear
10:55 AM 75.2 °F 55.4 °F 50% 29.86 in 10.0 mi WNW 10.4 mph - N/A   Clear
11:15 AM 76.3 °F 56.7 °F 51% 29.85 in 10.0 mi WNW 10.4 mph 19.6 mph N/A   Clear
11:35 AM 77.2 °F 56.3 °F 48% 29.85 in 10.0 mi NW 13.8 mph 20.7 mph N/A   Clear
12:15 PM 78.8 °F 54.0 °F 42% 29.83 in 10.0 mi NNW 8.1 mph 17.3 mph N/A   Clear
12:35 PM 79.7 °F 54.3 °F 41% 29.82 in 10.0 mi NW 11.5 mph 19.6 mph N/A   Clear
1:15 PM 81.5 °F 51.8 °F 36% 29.81 in 10.0 mi NW 12.7 mph 18.4 mph N/A   Clear
1:35 PM 81.7 °F 51.1 °F 34% 29.80 in 10.0 mi NW 12.7 mph 23.0 mph N/A   Clear
1:55 PM 82.0 °F 51.6 °F 35% 29.80 in 10.0 mi WNW 15.0 mph 24.2 mph N/A   Clear
2:15 PM 83.3 °F 52.7 °F 35% 29.79 in 10.0 mi WNW 12.7 mph 20.7 mph N/A   Clear
2:55 PM 82.8 °F 51.4 °F 34% 29.78 in 10.0 mi NW 19.6 mph 25.3 mph N/A   Clear
3:15 PM 83.3 °F 51.1 °F 33% 29.78 in 10.0 mi NW 13.8 mph 21.9 mph N/A   Clear
3:35 PM 83.5 °F 50.5 °F 32% 29.78 in 10.0 mi NW 11.5 mph 18.4 mph N/A   Clear
3:55 PM 83.5 °F 50.9 °F 32% 29.78 in 10.0 mi WNW 11.5 mph 23.0 mph N/A   Clear
4:15 PM 83.5 °F 50.0 °F 31% 29.78 in 10.0 mi NW 13.8 mph 19.6 mph N/A   Clear
4:35 PM 83.3 °F 49.1 °F 30% 29.78 in 10.0 mi NNW 10.4 mph 21.9 mph N/A   Clear
4:55 PM 83.3 °F 49.5 °F 31% 29.78 in 10.0 mi NNW 12.7 mph 16.1 mph N/A   Clear
5:15 PM 82.6 °F 49.5 °F 31% 29.78 in 10.0 mi NW 9.2 mph 18.4 mph N/A   Clear
5:35 PM 82.4 °F 50.0 °F 32% 29.77 in 10.0 mi NW 6.9 mph 19.6 mph N/A   Clear
5:55 PM 80.6 °F 50.2 °F 35% 29.77 in 10.0 mi WNW 8.1 mph - N/A   Clear
6:15 PM 80.6 °F 51.1 °F 36% 29.78 in 10.0 mi WNW 9.2 mph - N/A   Clear
6:35 PM 79.2 °F 51.1 °F 37% 29.78 in 10.0 mi WNW 6.9 mph - N/A   Clear
6:55 PM 76.5 °F 52.5 °F 43% 29.78 in 10.0 mi West 4.6 mph - N/A   Clear
7:15 PM 73.9 °F 53.4 °F 49% 29.79 in 10.0 mi West 5.8 mph - N/A   Clear
7:35 PM 72.5 °F 53.2 °F 51% 29.80 in 10.0 mi West 3.5 mph - N/A   Clear
7:55 PM 70.7 °F 52.7 °F 53% 29.80 in 10.0 mi Calm Calm - N/A   Clear
8:15 PM 69.1 °F 53.8 °F 58% 29.81 in 10.0 mi Calm Calm - N/A   Clear
8:35 PM 68.2 °F 55.4 °F 64% 29.82 in 10.0 mi Calm Calm - N/A   Clear
8:55 PM 65.7 °F 52.0 °F 61% 29.82 in 10.0 mi Calm Calm - N/A   Clear
9:15 PM 64.2 °F 55.6 °F 73% 29.83 in 10.0 mi Calm Calm - N/A   Clear
9:35 PM 63.5 °F 55.6 °F 75% 29.83 in 10.0 mi Calm Calm - N/A   Clear
9:55 PM 63.5 °F 53.2 °F 69% 29.83 in 10.0 mi West 3.5 mph - N/A   Clear
10:15 PM 64.4 °F 52.9 °F 66% 29.84 in 10.0 mi West 3.5 mph - N/A   Clear
10:35 PM 65.5 °F 54.3 °F 67% 29.84 in 10.0 mi West 4.6 mph - N/A   Clear
10:55 PM 65.8 °F 54.9 °F 68% 29.85 in 10.0 mi West 4.6 mph - N/A   Clear
11:15 PM 65.7 °F 55.2 °F 69% 29.84 in 10.0 mi West 3.5 mph - N/A   Clear
11:35 PM 65.8 °F 55.8 °F 70% 29.85 in 10.0 mi West 3.5 mph - N/A   Clear
11:55 PM 64.2 °F 53.6 °F 68% 29.85 in 10.0 mi Calm Calm - N/A   Clear